Regional Weather Roundup
Issued by NWS

Home | Current Version | Previous Version | Graphics & Text | Print | Product List | Glossary On
Versions: 1 2 3 4 5 6 7 8 9 10 11 12 13 14 15 16 17 18 19 20 21 22 23 24 25 26 27 28 29 30 31 32 33 34 35 36 37 38 39 40 41 42 43 44 45 46 47 48 49 50
000
ASUS43 KFSD 170610
RWRSD

WEATHER ROUNDUP FOR SOUTH DAKOTA
NATIONAL WEATHER SERVICE SIOUX FALLS SD
100 AM CDT TUE OCT 17 2017

NOTE: "FAIR" INDICATES FEW OR NO CLOUDS BELOW 12,000 FEET WITH NO
SIGNIFICANT WEATHER AND/OR OBSTRUCTIONS TO VISIBILITY.


SDZ001>005-009-010-012>017-170700-
NORTHWEST AND NORTH CENTRAL SOUTH DAKOTA

CITY           SKY/WX    TMP DP  RH WIND       PRES   REMARKS
BUFFALO          N/A     45  27  49 W8        29.98F
FAITH            N/A     50  29  44 SW6       30.05S
MOBRIDGE       CLEAR     41  33  73 CALM      29.98S
$$

SDZ012>016-024>037-041>051-057-063-072>074-170700-
SOUTHWEST AND SOUTH CENTRAL SOUTH DAKOTA

CITY           SKY/WX    TMP DP  RH WIND       PRES   REMARKS
RAPID CTY ARPT CLEAR     45  29  53 NW8       30.10S
PIERRE         CLEAR     50  37  61 W7        30.02S
CUSTER         CLEAR     48  19  31 W5        30.20S
ELLSWORTH AFB  CLEAR     45  29  53 W6        30.09F
PHILIP         CLEAR     39  35  86 W7        30.07S
PINE RIDGE     CLEAR     33  29  85 CALM      30.13S
SPEARFISH      FAIR      48  25  40 CALM      30.12S
WINNER         FAIR      51  38  60 SW7       30.05F
$$

SDZ004>011-016>023-039-040-170700-
NORTHEAST SOUTH DAKOTA

CITY           SKY/WX    TMP DP  RH WIND       PRES   REMARKS
ABERDEEN       CLEAR     37  34  89 SW5       29.98S
WATERTOWN      CLEAR     44  39  82 CALM      29.98S
BROOKINGS      CLEAR     47  39  74 CALM      30.01R
SISSETON         N/A     50  40  68 W5        29.95R
$$

SDZ017-020-022-023-036>040-048>070-170700-
SOUTHEAST SOUTH DAKOTA

CITY           SKY/WX    TMP DP  RH WIND       PRES   REMARKS
SIOUX FALLS    CLEAR     43  39  86 CALM      30.02R
HURON          CLEAR     43  39  86 W3        30.00R
CHAMBERLAIN    CLEAR     47  41  78 CALM      30.03F
MITCHELL       CLEAR     45  39  79 NW5       30.02R
YANKTON        CLEAR     50  40  68 CALM      30.02S
$$

ABBREVIATIONS USED IN REMARKS
   TC - TEMPERATURE IN CELSIUS
  WCI - WIND CHILL INDEX
   HX - HEAT INDEX
  VSB - VISIBILITY




USA.gov is the U.S. government's official web portal to all federal, state and local government web resources and services.